This demonstration page uses our WeatherBlox Daily Observations layout. Learn more.

Left ArrowRight Arrow

39.29038, -76.61219

Hourly Observations for July 20, 2021

Temp ( °F °C ) Dew Point ( °F °C ) Humidity (%) Winds ( mph kmh ) Pressure ( in mb ) Visibility ( mi km ) Precip ( " mm )
12:54 am 00:54 Clear 75 23.9 66 18.9 74 74 WSW 3 6 29.98 1015 8 13 N/A
1:54 am 01:54 Clear 73 22.8 66 18.9 79 79 WSW 5 7 29.96 1015 9 14 N/A
2:54 am 02:54 Clear 73 22.8 66 18.9 79 79 W 3 6 29.95 1014 7 11 N/A
3:54 am 03:54 Clear 70 21.1 66 18.9 87 87 NW 3 6 29.94 1014 8 13 N/A
4:54 am 04:54 Clear 70 21.1 66 18.9 87 87 N N/A 29.93 1014 8 13 N/A
5:54 am 05:54 Clear 70 21.1 65 18.3 84 84 NW 3 6 29.94 1014 7 11 N/A
6:54 am 06:54 Hazy 72 22.2 66 18.9 82 82 N N/A 29.95 1014 6 10 N/A
7:54 am 07:54 Sunny 75 23.9 67 19.4 76 76 NW 5 7 29.96 1015 7 11 N/A
8:54 am 08:54 Sunny 80 26.7 66 18.9 62 62 VRB 3 6 29.97 1015 8 13 N/A
9:54 am 09:54 Sunny 85 29.4 65 18.3 51 51 NNW 6 9 29.96 1015 8 13 N/A
10:54 am 10:54 Sunny 86 30 64 17.8 48 48 N N/A 29.96 1015 8 13 N/A
11:54 am 11:54 Mostly Sunny 89 31.7 64 17.8 43 43 N N/A 29.96 1014 8 13 N/A
12:54 pm 12:54 Partly Cloudy 91 32.8 65 18.3 42 42 undefined N/A 29.94 1014 8 13 N/A
1:54 pm 13:54 Partly Cloudy 92 33.3 66 18.9 43 43 VRB 3 6 29.93 1013 8 13 N/A
2:54 pm 14:54 Partly Cloudy 92 33.3 63 17.2 38 38 W 5 7 29.91 1013 8 13 N/A
3:54 pm 15:54 Partly Cloudy 92 33.3 64 17.8 40 40 VRB 7 11 29.89 1012 8 13 N/A
4:54 pm 16:54 Partly Cloudy 93 33.9 64 17.8 38 38 NNW 9 15 29.88 1012 7 11 N/A
5:54 pm 17:54 Partly Cloudy 92 33.3 65 18.3 41 41 NW 8 13 29.87 1012 7 11 N/A
6:54 pm 18:54 Hazy 90 32.2 65 18.3 44 44 NNW 7 11 29.87 1012 6 10 N/A
7:54 pm 19:54 Hazy 87 30.6 65 18.3 48 48 VRB 6 9 29.87 1012 6 10 N/A
8:54 pm 20:54 Hazy 83 28.3 66 18.9 57 57 N N/A 29.88 1012 6 10 N/A
9:54 pm 21:54 Hazy 78 25.6 67 19.4 69 69 N N/A 29.89 1012 6 10 N/A
10:54 pm 22:54 Hazy 76 24.4 66 18.9 72 72 WSW 3 6 29.89 1012 6 10 N/A
11:54 pm 23:54 Clear 78 25.6 67 19.4 69 69 N N/A 29.89 1012 7 11 N/A

Powered by AerisWeather